sat.trackr.live / text

‹ back to catalog

STARLINK-35298

NORAD 65842 · 2025-221V

PAYLOAD ACTIVE UNKNOWN

§ Identity

Operator
Country
US
Launch date
2025-09-29
Launch site
AFWTR
Launch vehicle
Mass (kg)
RCS (m²)

Purposes: comms

External: N2YO · Heavens-Above · Gunter

§ Orbital elements

Epoch: 2026-09-20T16:35:33.790848Z

Period
93.85 min
Inclination
53.1610°
Eccentricity
0.0001804
Mean motion
15.34401640 rev/d
Perigee alt
461.5 km
Apogee alt
463.9 km
Semi-major
6,840.8 km
B*
3.2576e-4
RAAN
258.7059°
Arg perigee
79.4792°
Mean anomaly
280.6414°
Rev number
5,464

§ Raw data

STARLINK-352981 65842U 25221V   26263.69136332  .00010646  00000+0  32576-3 0  99912 65842  53.1610 258.7059 0001804  79.4792 280.6414 15.34401640 54642

JSON: /api/v1/satellites/65842 · /tle

For live sub-satellite position, see the globe view (requires WebGL).

§ Visibility from observer

Set your observer location to see the next 7 days of passes ≥ 10°. The values pass through the URL so the page stays shareable.

No JS? Fill the form by hand. The geolocation button needs JavaScript.